Weather History for New Delhi, India

Change the Weather History Date:

Sunday, April 28, 2013

  Actual Average Record
Temperature  
Mean Temperature 86 °F -  
Max Temperature 98 °F 102 °F 114 °F (2007)
Min Temperature 73 °F 79 °F 69 °F (2012)
Cooling Degree Days 20    
Growing Degree Days 36 (Base 50)    
Moisture  
Dew Point 47 °F    
Average Humidity 27    
Maximum Humidity 57    
Minimum Humidity 13    
Precipitation  
Precipitation 0.00 in - - ()
Sea Level Pressure  
Sea Level Pressure 29.74 in    
Wind  
Wind Speed 8 mph ()    
Max Wind Speed 15 mph    
Max Gust Speed -    
Visibility 2.1 miles    
Events      
Averages and records for this station are not official NWS values.
T = Trace of Precipitation, MM = Missing Value Source: Averaged Metar Reports

Daily Weather History Graph

Daily Weather History Graph

Search for Another Location

Airport:

Trip Planner

Search our weather history database for the weather conditions in past years. The results will help you decide how hot, cold, wet, or windy it might be!

Date:

Astronomy

Apr. 28, 2013 Rise Set
Actual Time 5:43 AM IST 6:54 PM IST
Civil Twilight 5:18 AM IST 7:19 PM IST
Nautical Twilight 4:49 AM IST 7:49 PM IST
Astronomical Twilight 4:19 AM IST 8:19 PM IST
Moon 9:48 PM IST (4/28) 7:40 AM IST (4/28)
Length of Visible Light 14h 00m
Length of Day
13h 11m
Waning Gibbous, 92% of the Moon is Illuminated
Apr 28
Waning Gibbous
May 2
Last Quarter
May 10
New
May 18
First Quarter
May 25
Full

Hourly Weather History & Observations

Time (IST) Temp. Heat Index Dew Point Humidity Pressure Visibility Wind Dir Wind Speed Gust Speed Precip Events Conditions
12:00 AM 84.2 °F - 50.0 °F 30% 29.77 in 2.2 mi NW 9.2 mph - N/A   Mostly Cloudy
12:30 AM 84.2 °F - 50.0 °F 30% 29.77 in 2.2 mi NW 9.2 mph - N/A   Mostly Cloudy
1:00 AM 84.2 °F - 50.0 °F 30% 29.74 in 2.2 mi NW 6.9 mph - N/A   Haze
1:30 AM 82.4 °F - 50.0 °F 32% 29.74 in 2.2 mi NW 8.1 mph - N/A   Haze
2:00 AM 82.4 °F - 50.0 °F 32% 29.74 in 2.2 mi WNW 6.9 mph - N/A   Haze
2:30 AM 82.4 °F - 50.0 °F 32% 29.74 in 2.2 mi WNW 6.9 mph - N/A   Haze
3:00 AM 80.6 °F - 51.8 °F 37% 29.71 in 2.2 mi WNW 8.1 mph - N/A   Haze
3:30 AM 80.6 °F - 51.8 °F 37% 29.71 in 2.2 mi WNW 8.1 mph - N/A   Haze
4:00 AM 80.6 °F 80.3 °F 53.6 °F 39% 29.74 in 2.2 mi NW 8.1 mph - N/A   Haze
4:30 AM 80.6 °F 80.3 °F 53.6 °F 39% 29.74 in 2.2 mi NW 8.1 mph - N/A   Haze
5:00 AM 78.8 °F - 55.4 °F 44% 29.74 in 2.2 mi West 6.9 mph - N/A   Haze
5:30 AM 77.0 °F - 55.4 °F 47% 29.74 in 2.2 mi SW 5.8 mph - N/A   Haze
6:00 AM 75.2 °F - 55.4 °F 50% 29.74 in 2.2 mi WSW 5.8 mph - N/A   Haze
6:30 AM 73.4 °F - 57.2 °F 57% 29.74 in - West 5.8 mph - N/A   Haze
7:00 AM 75.2 °F - 57.2 °F 53% 29.77 in - West 8.1 mph - N/A   Haze
8:00 AM 77.0 °F - 53.6 °F 44% 29.77 in 1.6 mi West 9.2 mph - N/A   Haze
8:30 AM 82.4 °F 81.4 °F 53.6 °F 37% 29.80 in 1.7 mi West 9.2 mph - N/A   Haze
9:30 AM 86.0 °F 84.5 °F 55.4 °F 35% 29.80 in 2.2 mi WNW 13.8 mph - N/A   Haze
10:00 AM 86.0 °F 84.2 °F 53.6 °F 33% 29.77 in 2.2 mi WNW 13.8 mph - N/A   Haze
10:30 AM 87.8 °F 85.7 °F 53.6 °F 31% 29.77 in 2.2 mi WNW 13.8 mph - N/A   Haze
11:00 AM 89.6 °F - 50.0 °F 26% 29.77 in 2.2 mi NW 15.0 mph - N/A   Haze
11:30 AM 91.4 °F - 50.0 °F 24% 29.77 in 2.2 mi NW 11.5 mph - N/A   Haze
12:00 PM 93.2 °F - 50.0 °F 23% 29.77 in 2.2 mi WNW 13.8 mph - N/A   Scattered Clouds
12:30 PM 93.2 °F - 48.2 °F 21% 29.74 in 2.2 mi WNW 12.7 mph - N/A   Mostly Cloudy
1:00 PM 93.2 °F - 46.4 °F 20% 29.74 in 2.2 mi NW 13.8 mph - N/A   Mostly Cloudy
1:30 PM 95.0 °F - 48.2 °F 20% 29.74 in 2.2 mi WNW 13.8 mph - N/A   Mostly Cloudy
2:00 PM 95.0 °F - 46.4 °F 19% 29.74 in 2.2 mi WNW 11.5 mph - N/A   Mostly Cloudy
2:30 PM 96.8 °F - 44.6 °F 17% 29.71 in 2.2 mi WNW 12.7 mph - N/A   Mostly Cloudy
3:00 PM 98.6 °F - 44.6 °F 16% 29.71 in 2.2 mi WNW 10.4 mph - N/A   Scattered Clouds
3:30 PM 98.6 °F - 41.0 °F 14% 29.68 in 2.2 mi WNW 13.8 mph - N/A   Scattered Clouds
4:00 PM 98.6 °F - 41.0 °F 14% 29.68 in 2.2 mi WNW 11.5 mph - N/A   Scattered Clouds
4:30 PM 96.8 °F - 41.0 °F 15% 29.68 in 2.2 mi NW 10.4 mph - N/A   Scattered Clouds
5:00 PM 96.8 °F - 41.0 °F 15% 29.68 in 2.2 mi NW 12.7 mph - N/A   Scattered Clouds
5:30 PM 96.8 °F - 39.2 °F 14% 29.68 in 2.2 mi WNW 11.5 mph - N/A   Scattered Clouds
6:00 PM 96.8 °F - 37.4 °F 13% 29.68 in 2.2 mi WNW 11.5 mph - N/A   Scattered Clouds
6:30 PM 95.0 °F - 37.4 °F 13% 29.71 in 2.2 mi WNW 9.2 mph - N/A   Scattered Clouds
7:00 PM 95.0 °F - 37.4 °F 13% 29.71 in 2.2 mi WNW 6.9 mph - N/A   Haze
7:30 PM 93.2 °F - 39.2 °F 15% 29.71 in 2.2 mi WNW 6.9 mph - N/A   Haze
8:00 PM 93.2 °F - 37.4 °F 14% 29.71 in 2.2 mi WNW 6.9 mph - N/A   Haze
8:30 PM 91.4 °F - 39.2 °F 16% 29.74 in - WNW 5.8 mph - N/A   Haze
9:00 PM 91.4 °F - 39.2 °F 16% 29.74 in - WNW 5.8 mph - N/A   Haze
10:00 PM 89.6 °F - 39.2 °F 17% 29.74 in 1.6 mi NW 6.9 mph - N/A   Haze
10:30 PM 87.8 °F - 41.0 °F 19% 29.74 in 1.3 mi NNW 5.8 mph - N/A   Haze
11:00 PM 87.8 °F - 41.0 °F 19% 29.74 in 1.5 mi NW 5.8 mph - N/A   Haze
11:30 PM 87.8 °F - 42.8 °F 21% 29.74 in 1.5 mi NW 5.8 mph - N/A   Haze